Preview of NWS' New Version of Forecast
This preview is not operational and should not be used for support decisions.

Regional Weather Roundup (RWR)

Issued by National Weather Service (NWS)

                            
000
ASUS42 KTBW 251215
RWRFL 
FLORIDA REGIONAL WEATHER ROUNDUP
NATIONAL WEATHER SERVICE TAMPA BAY RUSKIN FL
800 AM EDT TUE JUN 25 2019

NOTE: "FAIR" INDICATES FEW OR NO CLOUDS BELOW 12,000 FEET WITH NO
SIGNIFICANT WEATHER AND/OR OBSTRUCTIONS TO VISIBILITY.

FLZ001>010-012>015-112-114-115-251300-
PANHANDLE FLORIDA
  
CITY           SKY/WX    TMP DP  RH WIND       PRES   REMARKS
PENSACOLA      FAIR      83  81  94 SW8       30.05R HX  97           
PENSACOLA NAS  CLOUDY    82  80  94 SW6       30.05R                  
MILTON NAS     PTSUNNY   78  78 100 W3        30.06R FOG              
CRESTVIEW      CLOUDY    78  74  87 CALM      30.07R                  
DUKE FIELD     FAIR      79  79 100 CALM      30.05S                  
VALPARAISO     FAIR      82  78  88 CALM      30.05R                  
MARY ESTHER    PTSUNNY   83  78  86 CALM      30.04R                  
PANAMA CITY    FAIR      82  78  88 W5        30.05R                  
TYNDALL AFB    SUNNY     84  78  82 W9        30.05R HX  95           
APALACHICOLA   FAIR      83  77  82 W7        30.06R                  

STATION/POSITION SKY/WX   TEMP    WIND        PRES    WAVE   SWELL
                          AIR SEA DIR/SP/G            HT/PER HT/PER
                          (F)     (DEG/KT/KT) (MB)    (FT/S) (FT/S)
30.1N   87.6W                                   N/A     3/ 6
29.2N   88.2W                     210/ 12/ 12 1018.2R   3/ 6   2/ 6
PANAMA CITY BEAC           84 85  260/ 13/ 14 1018.0
TOWER C          NOT AVBL

$$
FLZ011-016>038-118-127-128-134-139-239-251300-
NORTH FLORIDA
  
CITY           SKY/WX    TMP DP  RH WIND       PRES   REMARKS
MARIANNA       CLOUDY    78  78 100 W6        30.06R FOG              
TALLAHASSEE    FAIR      80  79  96 W5        30.06R                  
PERRY          FAIR      80  80  97 CALM      30.07R FOG              
LIVE OAK       SUNNY     77  77 100 CALM      30.06R                  
CROSS CITY     FAIR      80  79  94 W3        30.06R                  
LAKE CITY      FAIR      77  75  94 CALM      30.07R FOG              
GAINESVILLE    FAIR      79  78  97 W6        30.09R FOG              
PALATKA        FAIR      79  77  94 W6        30.06R FOG              
MAYPORT NAS    FAIR      81  76  84 W10       30.04R                  
JACKSONVILLE   FAIR      78  75  90 W6        30.04R                  
JAX NAS        FAIR      81  75  82 W10       30.06R                  
JAX CECIL      CLOUDY    79  77  94 W8        30.05R FOG              
FERNANDINA BEA FAIR      79  76  89 W14       30.04R                  
ST AUGUSTINE   PTSUNNY   80  77  90 W9        30.06R FOG              
PALM COAST     SUNNY     79  75  89 CALM      30.05R                  

STATION/POSITION SKY/WX   TEMP    WIND        PRES    WAVE   SWELL
                          AIR SEA DIR/SP/G            HT/PER HT/PER
                          (F)     (DEG/KT/KT) (MB)    (FT/S) (FT/S)
SHELL POINT      NOT AVBL
KEATON BEACH               84     270/ 14/ 16 1017.9R
CEDAR KEY                  83     290/  7/ 10 1017.5R
FERNANDINA                 80 85  270/  8/ 11 1017.6
30.7N   81.3W                 82                N/A     2/ 3
MAYPORT                    80 83  270/  9/ 12 1017.4
31.4N   80.9W              80 83  300/ 16/ 19 1016.1R   3/ 4
ST AUGUSTINE               81 80  290/  7/ 10 1017.9R

$$
FLZ040-043>046-052-053-057-058-063-144-251300-
INTERIOR CENTRAL FLORIDA
  
CITY           SKY/WX    TMP DP  RH WIND       PRES   REMARKS
OCALA          FAIR      79  78  97 CALM      30.07R                  
LEESBURG       FAIR      79  77  94 W3        30.07R                  
SANFORD        FAIR      81  77  88 NW5       30.05R                  
ORLANDO EXEC   FAIR      83  77  82 NW6       30.06R                  
ORLANDO INTL   FAIR      80  76  87 CALM      30.06R                  
KISSIMMEE      FAIR      79  76  90 CALM      30.07R                  
WINTER HAVEN   FAIR      82  77  84 NW5       30.08R                  
LAKELAND       SUNNY     77  73  88 CALM      30.08R                  
BARTOW         SUNNY     75  73  94 SW3       30.05                   
SEBRING        FAIR      78  75  90 N3        30.06R                  
OKEECHOBEE     FAIR      77  72  83 N5        30.05R                  

$$
FLZ041-047-054-059-064-141-147-251300-
EAST CENTRAL FLORIDA
  
CITY           SKY/WX    TMP DP  RH WIND       PRES   REMARKS
ORMOND BEACH   SUNNY     77  77 100 W5        30.04R FOG              
DAYTONA BEACH  FAIR      80  79  96 W6        30.05R                  
DELAND         FAIR      79  77  94 W5        30.05R                  
NEW SMYRNA BEA SUNNY     79  75  89 W5        30.06R                  
JFK SPACE CTR  FAIR      80  67  64 W5        30.05R                  
TITUSVILLE     SUNNY     81  79  94 VRB3      30.06R                  
CAPE CANAVERAL FAIR      81  40  22 W5        30.04R                  
PATRICK AFB    FAIR      82  79  90 W6        30.05R                  
MELBOURNE      FAIR      80  76  87 W5        30.05R                  
VERO BEACH     FAIR      80  74  81 N5        30.05R                  
FT PIERCE      FAIR      80  74  81 NW5       30.05R                  
STUART         MOSUNNY   82  75  78 W6        30.07R HAZE             

STATION/POSITION SKY/WX   TEMP    WIND        PRES    WAVE   SWELL
                          AIR SEA DIR/SP/G            HT/PER HT/PER
                          (F)     (DEG/KT/KT) (MB)    (FT/S) (FT/S)
28.5N   80.2W              81     290/  6/  8 1018.1
28.9N   78.5W              84     250/ 10/ 14   N/A
TRIDENT PIER               80 76  260/  4/  5 1018.7
28.4N   80.5W                 77                N/A     1/ 9
27.5N   80.2W                 81                N/A     1/ 9

$$
FLZ050-056-061-142-242-148-248-149-249-151-251-155-255-
160-260-251300-
WEST CENTRAL FLORIDA
  
CITY           SKY/WX    TMP DP  RH WIND       PRES   REMARKS
CRYSTAL RIVER  FAIR     N/A N/A N/A CALM      30.07R                  
INVERNESS      FAIR      77  77 100 CALM      30.07R FOG              
BROOKSVILLE    FAIR      77  75  93 CALM      30.08R                  
CLEARWATER AIR FAIR      81  77  89 CALM      30.06S                  
ST PETE CLEARW FAIR      83  77  82 NW5       30.06R                  
TAMPA INTL     FAIR      83  77  82 NW6       30.06R                  
PLANT CITY       N/A    N/A N/A N/A MISG        N/A                   
MACDILL AFB    FAIR      83  77  81 NW5       30.06R                  
PETER O KNIGHT CLOUDY    82  81  94 CALM      30.06S HX  95           
ST PETERSBURG  FAIR      82  77  84 NW6       30.03S                  
SARASOTA       FAIR      81  77  88 CALM      30.05R                  
VENICE         FAIR      79  77  94 E3        30.07R                  

STATION/POSITION SKY/WX   TEMP    WIND        PRES    WAVE   SWELL
                          AIR SEA DIR/SP/G            HT/PER HT/PER
                          (F)     (DEG/KT/KT) (MB)    (FT/S) (FT/S)
27.3N   84.2W                 86                N/A     1/ 8
CLEARWATER BEACH           84 89  310/  5/  7 1017.9
MIDDLE TAMPA BAY           83     340/  6/  7 1017.9
VENICE                     78 86   60/  6/  6 1017.3R

$$
FLZ066-069-070-075>078-162-262-165-265-251300-
SOUTHWEST FLORIDA AND KEYS
  
CITY           SKY/WX    TMP DP  RH WIND       PRES   REMARKS
PUNTA GORDA    FAIR      79  76  90 CALM      30.07R                  
FT MYERS       FAIR      82  75  79 CALM      30.05R                  
SOUTHWEST INTL FAIR      81  74  79 CALM      30.05R                  
NAPLES         FAIR      84  76  76 N3        30.05R                  
IMMOKALEE      FAIR      81  75  83 CALM      30.04R                  
MARATHON       FAIR      86  74  67 CALM      30.05R                  
KEY WEST NAS   FAIR      87  75  67 SE5       30.06R HX  96           
KEY WEST INTL  FAIR      84  75  74 S6        30.07R                  

STATION/POSITION SKY/WX   TEMP    WIND        PRES    WAVE   SWELL
                          AIR SEA DIR/SP/G            HT/PER HT/PER
                          (F)     (DEG/KT/KT) (MB)    (FT/S) (FT/S)
NAPLES                     82 89              1017.6
DRY TORTUGAS               85      20/  2/  4 1018.1R
SAND KEY                   83                 1018.1R
SOMBRERO KEY               84                 1017.3R
LONG KEY                   85     170/  9/ 15 1018.0

$$
FLZ067-068-071>074-168-172>174-251300-
SOUTHEAST FLORIDA 
  
CITY           SKY/WX    TMP DP  RH WIND       PRES   REMARKS
W PALM BEACH   FAIR      83  77  82 SW5       30.05R                  
BOCA RATON     SUNNY     84  77  79 SW5       30.05R                  
FT LAUDER-EXEC FAIR      83  75  77 SW5       30.05R                  
FT LAUDERDALE  FAIR      83  75  77 W5        30.04R                  
POMPANO BEACH  FAIR      85  75  72 SW5       30.05R                  
PEMBROKE PINES FAIR      84  75  74 SW6       30.07R                  
OPA LOCKA      FAIR      79  75  87 S5        30.06R                  
MIAMI          FAIR      85  73  67 S7        30.06R                  
WEST KENDALL   FAIR      81  77  88 CALM      30.06R                  
HOMESTEAD      FAIR      82  77  85 CALM      30.05R                  

STATION/POSITION SKY/WX   TEMP    WIND        PRES    WAVE   SWELL
                          AIR SEA DIR/SP/G            HT/PER HT/PER
                          (F)     (DEG/KT/KT) (MB)    (FT/S) (FT/S)
VIRGINIA KEY               87 90  210/  5/  7 1017.0
LAKE WORTH                 83 82  210/  5/  7 1018.3
FOWEY ROCKS                84 85  180/  9/ 10 1017.3R
SETTLEMENT POINT           85     240/  7/  8 1017.9R

$$